Weather in Sutysky

Ukraine / Vinnytsia Region     49°02′31″N   28°25′14″E
temp.,
°C
wind,
m/s
gust,
m/s
humid.,
%
clouds,
%
prec.,
mm/h
press.,
hPa
HPBL,
m
12 may, wed
wed1200:00+12ene369190 0.0 1016104
03:00+10e489860 0.0 1015204
06:00+10e5995100 0.1 1015395
09:00+11e69740 0.2 1016679
12:00+13e675721 0.0 10151434
15:00+12e6662100 0.1 10151534
18:00+11e4670100 0.0 1014802
21:00+9e3675100 0.1 1013231
13 may, thu
thu1300:00+8ese337974 0.0 101256
03:00+6se3686100 0.0 1011115
06:00+5se369244 0.0 1011108
09:00+10sse5975100 0.0 1010629
12:00+10se7108497 0.1 1009906
15:00+13sse61278100 0.1 10081150
18:00+14s71276100 0.2 10071037
21:00+11se61392100 1.1 1007589
14 may, fri
fri1400:00+10se6139399 1.4 1007599
03:00+9sse4990100 1.5 1007343
06:00+9sse369388 0.1 1007178
09:00+13ssw2383100 0.1 1007381
12:00+14s4478100 0.1 1008689
15:00+15ssw4576100 0.5 1008723
18:00+13ssw3590100 1.0 1008267
21:00+12sw2292100 1.3 100939
15 may, sat
sat1500:00+11wnw2594100 0.1 1010135
03:00+11nw2495100 0.3 1010101
06:00+10nw249558 0.0 1011111
09:00+13nnw22766 0.0 1012457
12:00+18wsw125710 0.0 10121319
15:00+20wnw114755 0.1 10111912
18:00+19ese234928 0.0 10101753
21:00+16ese3565100 0.0 101194
16 may, sun
sun1600:00+14ese387455 0.0 1011186
03:00+12ese4108523 0.0 1011226
06:00+11e41190100 0.0 1010250
09:00+15e61180100 0.0 1010548
12:00+19ese7966100 0.0 10091262
15:00+19se7969100 1.8 10091193
18:00+16se2384100 2.3 1008100
21:00+14nw2393100 6.3 100665